Other Public Products
Issued by NWS Grand Forks, ND

Home | Current Version | Previous Version | Text Only | Print | Product List | Glossary On
Versions: 1 2 3 4 5 6 7 8 9 10 11 12 13 14 15 16 17 18 19 20 21 22 23 24 25 26 27 28 29 30 31 32 33 34 35 36 37 38 39 40 41 42 43 44 45 46 47 48 49 50
000
FPUS83 KFGF 120931
OPUFGF
PRAIRIE TO PINES WEATHER ROUNDUP
NATIONAL WEATHER SERVICE EASTERN NORTH DAKOTA/GRAND FORKS ND
300 AM CST FRI FEB 12 2016

 **SATELLITE DATA USED TO AUGMENT SKY COVER AT AUTOMATED STATIONS**
 *****  WEATHER ACROSS EASTERN NORTH DAKOTA  *****

CITY           SKY/WX    TMP DP  RH WIND       PRES   REMARKS
GRAND FORKS    CLEAR      4  -6  63 N18       30.40R WCI -16
GRAND FORKS AF CLEAR      3  -7  63 N16G23    30.39R WCI -16
GRAND CITY NWS NOT AVBL
BUXTON           N/A      4  -2  74 N14         N/A  WCI -13
DEVILS LAKE    CLOUDY    -5  -8  87 N12       30.40R WCI -23
FARGO          CLEAR      6  -2  69 N14       30.37R WCI -11
WAHPETON ARPT  CLOUDY    10   1  67 N20       30.36R WCI  -8
$$

 *****  WEATHER ACROSS CENTRAL AND WESTERN NORTH DAKOTA  *****

CITY           SKY/WX    TMP DP  RH WIND       PRES   REMARKS
JAMESTOWN      CLOUDY    11   4  73 N17G23    30.35R WCI  -6
BISMARCK       FLURRIES  20  14  77 N5        30.37R WCI  13
MINOT          CLOUDY     6  -2  69 NW12      30.42R WCI  -9
MINOT AFB      CLOUDY     3  -3  78 NW5       30.42R WCI  -7
GARRISON         N/A     11   6  81 N12       30.38R WCI  -3
WILLISTON      CLOUDY    16  11  80 N12       30.42R WCI   3
DICKINSON      CLOUDY    18  12  77 N8        30.32R WCI   8
HETTINGER      CLOUDY    22  19  89 N7        30.31R WCI  13
$$

 *****  OTHER OBSERVATIONS NORTHEAST NORTH DAKOTA  *****

CITY           SKY/WX    TMP DP  RH WIND       PRES   REMARKS
WALHALLA       FAIR       0  -8  71 N14G20    30.46R WCI -19
LANGDON        FAIR      -8 -15  71 N10       30.38R WCI -26
CAVALIER       FAIR       0  -6  78 N18G25    30.44R WCI -22
GRAFTON        FAIR       0  -8  71 N18G26    30.45R WCI -22
CANDO          CLOUDY     1  -2  85 N12       30.44R WCI -15
FORT TOTTEN      N/A     -1  -5  84 N3        29.95S
ROLLA          FAIR      -8 -11  84 N12       30.40R WCI -27
RUGBY          FAIR       0  -4  85 N8        30.42R WCI -15
 ***** THE ABOVE OBSERVATIONS ARE NON NWS ARE NOT QUALITY
        CONTROLLED AND MAY MIS-REPORT RAIN FOR SNOW...
$$

 *****  OTHER OBSERVATIONS SOUTHEAST NORTH DAKOTA *****

CITY           SKY/WX    TMP DP  RH WIND       PRES   REMARKS
COOPERSTOWN    NOT AVBL
VALLEY CITY    FAIR       5   1  85 N10       30.39R WCI -10
OAKES          CLOUDY    10   7  85 N12       30.36R WCI  -4
GWINNER        CLOUDY    12   9  85 N12       30.36R WCI  -2
SHEYENNE NWR     N/A     10   5  80 N7        29.95S WCI  -1
BUFFALO          N/A      2  -3  79 N8          N/A  WCI -11
WYNDMERE         N/A     10   7  85 N12         N/A  WCI  -4
 ***** THE ABOVE OBSERVATIONS ARE NON NWS ARE NOT QUALITY
       CONTROLLED AND MAY MIS-REPORT RAIN FOR SNOW...
$$

  *****  WEATHER ACROSS NORTHERN MINNESOTA  *****

CITY           SKY/WX    TMP DP  RH WIND       PRES   REMARKS
FLAG ISLAND    CLEAR     -8 -13  77 NW17      30.27R WCI -31
WARROAD        CLEAR     -8 -11  84 NW10      30.31R WCI -26
ROSEAU         CLOUDY    -8 -13  77 NW8       30.32R WCI -23
HALLOCK        CLEAR     -2  -9  71 N13       30.42R WCI -21
THF RVR FALLS  CLEAR     -2  -8  78 NW10      30.34R WCI -19
HALSTAD          N/A      4   0  83 N17         N/A  WCI -16
FOSSTON        CLEAR     -6  -9  84 NW10      30.31R WCI -23
BAUDETTE       CLEAR     -5 -13  68 NW20      30.23R WCI -28
WASKISH        CLEAR     -6  -9  84 W6        30.25R WCI -18
CROOKSTON      CLEAR      1  -6  71 N16       30.39R WCI -18
$$
  *****  WEATHER ACROSS CENTRAL AND WEST MINNESOTA  *****

CITY           SKY/WX    TMP DP  RH WIND       PRES   REMARKS
BEMIDJI        CLEAR     -3  -7  83 NW10      30.24R WCI -20
PARK RAPIDS    CLEAR      2  -5  72 NW10      30.22R WCI -14
WADENA         CLEAR      3  -2  78 NW13      30.26R WCI -14
DETROIT LAKES  CLEAR      3   0  85 NW13      30.29R WCI -14
MOORHEAD       PTCLDY     5   0  78 N13       30.38R WCI -12
FERGUS FALLS   MOCLDY     7   1  78 N13       30.36R WCI  -9
ELBOW LAKE     CLOUDY     8   4  82 NW20G26   30.31R WCI -11
MORRIS MN      CLOUDY     9   7  92 NW12      30.29R WCI  -6
STAPLES        CLEAR      3  -2  78 NW14      30.24R WCI -15
WHEATON        FLURRIES  12   9  85 NW13      30.36R WCI  -3
$$
  *****  WEATHER ELSEWHERE ACROSS MINNESOTA  *****

CITY           SKY/WX    TMP DP  RH WIND       PRES   REMARKS
DULUTH         PTCLDY     4  -5  66 NW12      30.10R WCI -12
INTRNTL FALLS  PTCLDY    -4 -10  75 NW8       30.18R WCI -19
ELY            CLEAR     -2  -8  78 NW8       30.08S WCI -17
CLOQUET        CLEAR      5  -4  66 NW9G20    30.14R WCI  -9
BRAINERD       PTCLDY     7   0  73 NW13      30.21R WCI  -9
HIBBING        PTCLDY     0  -5  79 NW16G25   30.14R WCI -20
ALEXANDRIA     PTCLDY     6   1  80 NW9       30.25R WCI  -8
SAINT CLOUD    CLEAR      5   0  79 NW10      30.22R WCI -10
MINNEAPOLIS    CLOUDY    14   8  77 NW13G18   30.21R WCI   0
$$

  *****  WEATHER ACROSS SOUTH DAKOTA  *****

CITY           SKY/WX    TMP DP  RH WIND       PRES   REMARKS
SIOUX FALLS    CLOUDY    18  14  84 N8        30.27R WCI   8
BROOKINGS      FLURRIES  14  10  84 NW9       30.27R WCI   2
WATERTOWN      CLOUDY    11   6  81 N10       30.27R WCI  -3
HURON          CLOUDY    15  11  83 N15       30.34R WCI   0
SISSETON         N/A     11   7  84 N16       30.33R WCI  -6
ABERDEEN       CLOUDY    15   9  76 N8        30.36R WCI   4
MITCHELL       CLOUDY    20  15  81 N13       30.33R WCI   7
PIERRE         CLOUDY    22  17  81 N13       30.32R WCI  10
MOBRIDGE       CLOUDY    21  16  81 N7        30.31R WCI  12
RAPID CITY     CLOUDY    30  28  92 N5        30.26R
$$

  *****  SOME WEATHER IN NEARBY STATES *****

CITY           SKY/WX    TMP DP  RH WIND       PRES   REMARKS
GLASGOW MT     CLOUDY    24  20  84 E13       30.36R WCI  12
GREAT FALLS MT CLOUDY    29  27  92 CALM      30.24S
CHEYENNE WY    MOCLDY    31  24  75 SW6       30.26S
SCOTTSBLUFF NE MOCLDY    30  26  85 NW6       30.25R WCI  24
OMAHA NE       CLOUDY    24  20  84 N9        30.27R WCI  14
DES MOINES IA  CLOUDY    20  15  81 W5        30.22S WCI  13
DAVENPORT IA   CLOUDY    20  15  81 W9        30.20F WCI   9
CHICAGO IL     CLOUDY    19   7  59 W9        30.16F WCI   8
EAU CLAIRE WI  CLOUDY    14   7  73 W8        30.15S WCI   3
LA CROSSE WI   CLOUDY    14   7  73 W5        30.19F WCI   6
$$

  *****  SOME NATIONAL WEATHER *****

CITY           SKY/WX    TMP DP  RH WIND       PRES   REMARKS
LA GUARDIA NY  CLEAR     18   0  45 NW14      30.24S WCI   4
RALEIGH NC     MOCLDY    28   5  37 E10       30.29F WCI  19
ATLANTA GA     CLOUDY    40  26  57 E5        30.13F
NEW ORLEANS LA CLEAR     59  55  87 SW13      30.18F
OKLAHOMA CITY  CLOUDY    37  32  82 N8        30.19R
ALBUQUERQUE NM CLEAR     40  19  43 E6        30.36R
SALT LAKE CITY CLOUDY    29  27  92 SW3       30.44F FOG
LOS ANGELES CA PTCLDY    58  42  55 CALM      30.11S
BOISE ID       CLOUDY    33  29  85 CALM      30.32S
SEATTLE WA     RAIN      50  50 100 SW3       30.10S FOG
$$

*** WEATHER ACROSS MANITOBA...SASKATCHEWAN AND ONTARIO ***
                ***ONTARIO***

CITY           SKY/WX    TMP DP  RH WIND       PRES   REMARKS
GERALDTON      LGT SNOW -13 -20  70 N14G21    29.99R DRFTSNOWWCI -35
THUNDER BAY    PTCLDY     1  -4  78 NW8       30.05R WCI -12
SIOUX LOOKOUT  FLURRIES -11 -17  77 N8        30.13R WCI -28
TORONTO        PTCLDY    10   1  67 SW13      30.07F WCI  -5
BIG TROUT LK   CLEAR    -29 -36  68 NW10      30.15R WCI -53
PICKLE LAKE    NOT AVBL
DRYDEN         PTCLDY    -9 -15  77 NW7       30.13R WCI -24
KENORA         PTCLDY   -11 -17  77 NW8       30.21R WCI -28
$$
                *** MANITOBA***

CITY           SKY/WX    TMP DP  RH WIND       PRES   REMARKS
BRANDON        CLEAR    -13 -18  77 N12       30.46R WCI -33
DAUPHIN        CLEAR     -8 -13  77 N14       30.54R WCI -28
ISLAND LAKE    CLEAR    -26 -31  75 NW9       30.37R WCI -47
PILOT MOUND      N/A     -9 -15  77 N8          N/A  WCI -26
THE PAS        CLEAR    -20 -26  76 NW9       30.60S WCI -40
THOMPSON       CLEAR    -24 -33  62 NW9       30.50R WCI -45
WINNIPEG       CLEAR     -6 -15  65 N16G22    30.44R WCI -28
LYNN LAKE      CLEAR    -27 -35  68 NW9       30.57R WCI -49
CHURCHILL      CRYSTALS -22 -27  76 NW29      30.35R VSB 5/8 WCI -55
GILLAM         CLEAR    -27 -35  68 NW12      30.37R WCI -51
$$
                ***SASKATCHEWAN***

CITY           SKY/WX    TMP DP  RH WIND       PRES   REMARKS
ESTEVAN        CLEAR      1  -4  78 N6        30.45R WCI -10
KINDERSLEY     CLOUDY     9   3  78 E13       30.44R WCI  -7
LLOYDMINSTER   CLEAR      0  -4  85 E8        30.47R WCI -15
PRINCE ALBERT  CLEAR    -18 -22  83 VRB2      30.58R
REGINA         CLEAR      0  -4  85 N3        30.47S
YORKTON        CLEAR    -11 -15  84 W8        30.49R WCC1F1C2F2C3F3C4F4C5F5C6F6C7F7C8F8C9F9CaFaCbFbCcFcCdFdCe!


USA.gov is the U.S. government's official web portal to all federal, state and local government web resources and services.